sat.trackr.live / text

‹ back to catalog

STARLINK-2257

NORAD 47787 · 2021-018A

PAYLOAD ACTIVE UNKNOWN

§ Identity

Operator
Country
US
Launch date
2021-03-11
Launch site
AFETR
Launch vehicle
Mass (kg)
RCS (m²)

Purposes: comms

External: N2YO · Heavens-Above · Gunter

§ Orbital elements

Epoch: 2026-09-20T04:07:45.571008Z

Period
94.01 min
Inclination
53.1603°
Eccentricity
0.0001153
Mean motion
15.31692128 rev/d
Perigee alt
470.0 km
Apogee alt
471.6 km
Semi-major
6,848.9 km
B*
-7.9234e-5
RAAN
60.6085°
Arg perigee
88.1436°
Mean anomaly
271.9697°
Rev number
30,648

§ Raw data

STARLINK-22571 47787U 21018A   26263.17205522 -.00002822  00000+0 -79234-4 0  99922 47787  53.1603  60.6085 0001153  88.1436 271.9697 15.31692128306488

JSON: /api/v1/satellites/47787 · /tle

For live sub-satellite position, see the globe view (requires WebGL).

§ Visibility from observer

Set your observer location to see the next 7 days of passes ≥ 10°. The values pass through the URL so the page stays shareable.

No JS? Fill the form by hand. The geolocation button needs JavaScript.